Location: Rumah Long Bangan
(2.8362°N, 113.7519°E)
Time: 05:06:28
(UTC+00:00)

Cosmos 1758 - Pass Details

Date: 24 October 2021
Orbit: 539 x 560 km, 82.5° (Epoch: 28 November)

Event Time Altitude Azimuth Distance (km) Brightness Sun altitude
Exits shadow 21:15:31 10° 332° (NNW) 1,835 5.6 -13.7°
Reaches altitude 10° 21:15:35 10° 332° (NNW) 1,814 5.6 -13.7°
Maximum altitude 21:19:12 34° 267° (W) 925 3.9 -12.8°
Drops below altitude 10° 21:22:52 10° 201° (SSW) 1,831 5.9 -11.9°
Sets 21:25:11 0° 192° (SSW) 2,731 6.9 -11.3°
